Regional Weather Roundup
Issued by NWS Wakefield, VA

Home | Current Version | Previous Version | Graphics & Text | Print | Product List | Glossary On
Versions: 1 2 3 4 5 6 7 8 9 10 11 12 13 14 15 16 17 18 19 20 21 22 23 24 25 26 27 28 29 30 31 32 33 34 35 36 37 38 39 40 41 42 43 44 45 46 47 48 49 50
000
ASUS41 KAKQ 181114
RWRAKQ

REGIONAL WEATHER ROUNDUP
NATIONAL WEATHER SERVICE WAKEFIELD VA
700 AM EDT SAT APR 18 2015

Note: "fair" indicates few or no clouds below 12,000 feet with no
significant weather and/or obstructions to visibility. * = Denotes
station may not report precipitation (e.g., rain,snow,etc.),
thunder or fog.

VAZ042-051-052>054-056-181200-
NORTHERN VIRGINIA

CITY           SKY/WX    TMP DP  RH WIND       PRES   REMARKS
WASH NATIONAL  MOCLDY    62  54  74 CALM      30.03R
DULLES         PTCLDY    52  50  93 CALM      30.03R
FORT BELVOIR   CLEAR     54  52  95 CALM      30.03R FOG
QUANTICO       CLEAR     59  54  83 NW5       30.04R
FREDERICKSBRG* MOCLDY    59  59 100 CALM      30.03R
STAFFORD*      CLEAR     52  32  45 W3        30.07R FOG
WARRENTON      FOG       50  50 100 CALM      30.03R VSB 1/4
CULPEPER*      FOG       54  54 100 CALM      30.04R VSB 1
MANASSAS*      CLEAR     52  52 100 CALM      30.04R
LEESBURG*      CLEAR     57  54  88 NW7       30.04R
WINCHESTER     CLEAR     50  45  81 CALM      30.05R HAZE
FRONT ROYAL*   FAIR      50  48  93 CALM      30.05R
LURAY*         FAIR      52  52 100 CALM      30.06R FOG
$$

VAZ048-049-060>072-079>083-181200-
CENTRAL AND SOUTH CENTRAL VIRGINIA

CITY           SKY/WX    TMP DP  RH WIND       PRES   REMARKS
RICHMOND       CLOUDY    63  59  87 N9        30.00R
CHESTERFIELD*  NOT AVBL
PETERSBURG*    CLOUDY    60  59  96 CALM      30.01R FOG
HANOVER        FOG       58  57  97 CALM      30.03R VSB 1
TAPPAHANNOCK*  MOCLDY    62  56  80 CALM      30.02R
QUINTON*       CLOUDY    62  59  92 N5        30.00R
CHARLOTTSVILLE PTCLDY    55  55 100 CALM      30.04R
GORDONSVILLE*  FAIR      52  52  98 SW6       30.03R FOG
ORANGE*        PTCLDY    57  55  94 CALM      30.05R
LOUISA*        PTCLDY    59  57  94 N5        30.02R
BUMPASS*       FAIR      58  56  95 N3        30.02R
FARMVILLE*     CLOUDY    63  63 100 N3        30.02R
CREWE*         FAIR      60  58  96 CALM      30.01R
FORT PICKETT*    N/A     57  57  97 NW5       30.02R
CHASE CITY*    PTSUNNY   59  59 100 CALM      30.02R
CLARKSVILLE*   FAIR      59  59 100 CALM      30.02R
SOUTH HILL*    CLOUDY    59  58  98 CALM      30.07R
LAWRENCEVILLE* FAIR      60  60  99 CALM      30.00R
EMPORIA*       CLOUDY    57  57 100 CALM      30.02R
$$

VAZ088>098-181200-
SOUTHEAST VIRGINIA

CITY           SKY/WX    TMP DP  RH WIND       PRES   REMARKS
NORFOLK        CLOUDY    64  61  90 CALM      29.98R
VIRGINIA BEACH CLOUDY    64  61  90 SW3       29.98R
NORFOLK NAVAL  CLOUDY    67  62  84 CALM      30.00R
WEST POINT*    CLOUDY    64  61  91 CALM      30.01R
SALUDA*        FAIR      61  59  93 CALM      29.99R
NEWPORT NEWS   CLOUDY    64  60  87 S3        29.99R
LANGLEY AFB    MOCLDY    62  61  97 SW2       29.98R
FORT EUSTIS    CLOUDY    61 N/A N/A S2        29.97R
WILLIAMSBURG*  MOCLDY    64  63  94 N3        30.00R
HR EXEC AP*    CLOUDY    59  55  88 CALM      30.00R VSB 1/2
FRANKLIN*      CLOUDY   N/A N/A N/A CALM      30.00R HAZE
WAKEFIELD      CLOUDY    59  58  96 CALM      30.00R FOG
$$

VAZ020-022-025-037-045-181200-
WEST CENTRAL AND SOUTHWEST VIRGINIA

CITY           SKY/WX    TMP DP  RH WIND       PRES   REMARKS
STAUNTON*      FOG       48  47  95 CALM      30.09R VSB<1/4
WAYNESBORO*    FAIR      49  49 100 CALM      30.07R
HOT SPRINGS VA PTCLDY    55  49  82 NE3       30.10F
LYNCHBURG      PTCLDY    58  56  93 N5        30.05R
DANVILLE       CLOUDY    59  57  93 CALM      30.02R FOG
SOUTH BOSTON*  CLOUDY    56  55  95 CALM      30.03R
MARTINSVILLE   PTCLDY    54  54 100 CALM      30.05S FOG
ROANOKE        PTCLDY    55  52  89 CALM      30.06S
BLACKSBURG     MOCLDY    49  49  97 CALM      30.09F
DUBLIN*        MOCLDY    53  53 100 CALM      30.07S
MARION*        FOG       51  49  95 CALM      30.10R VSB 1/2
HILLSVILLE*    CLEAR     54  52  95 CALM      30.07S FOG
RICHLANDS*     FAIR      55  49  80 E3        30.07S
WISE*          CLEAR     57  50  77 CALM      30.08S
ABINGDON*      CLEAR     55  55 100 CALM      30.06S FOG
$$

MDZ021>025-VAZ099-100-181200-
SOUTHERN MARYLAND AND THE DELMARVA PENINSULA

CITY           SKY/WX    TMP DP  RH WIND       PRES   REMARKS
PATUXENT RIVER MOCLDY    60  58  92 NW8       30.00R
BAY BRIDGE APT   N/A     54  54 100 CALM      30.01R FOG
LEONARDTOWN      N/A     57  54  88 CALM      30.02R VSB<1/4
DOVER          CLEAR     55  55 100 N7        29.96R
GEORGETOWN     FOG       55  55 100 SW6       29.99R VSB 1/4
EASTON         PTCLDY   N/A N/A N/A N3        30.03R
CAMBRIDGE      CLOUDY    55  54  94 CALM      29.99R VSB<1/4
SALISBURY      FOG       58  57  97 CALM      29.99R VSB<1/4
OCEAN CITY     FOG       56  56 100 CALM      29.99R VSB 1
WALLOPS ISLAND MOCLDY    56  56 100 CALM      30.00R
ACCOMACK*      CLOUDY    57  55  94 N3        29.99R FOG
$$

NCZ012>017-030>032-181200-
NORTH CENTRAL AND EASTERN NORTH CAROLINA

CITY           SKY/WX    TMP DP  RH WIND       PRES   REMARKS
ROANOKE RAPIDS FAIR      57  55  94 SW3       30.01R
RALEIGH        CLOUDY    62  61  96 CALM      30.02R
ELIZABETH CITY MOCLDY    64  62  93 SW5       29.99R
AHOSKIE*       CLOUDY    57  56  97 CALM      30.01R FOG
EDENTON*       MOCLDY    61  60  96 CALM      30.00R
CURRITUCK*     MOCLDY    64  62  93 CALM      29.99R
KILL DEVIL HLS MOCLDY    64  64 100 CALM      29.98R
MANTEO         MOCLDY    64  64 100 CALM      29.99R
CAPE HATTERAS  CLOUDY    61  60  97 CALM      29.99R
TARBORO*       PTSUNNY   60  59  97 CALM      30.01R FOG
GOLDSBORO      CLOUDY    66  65  96 CALM      29.98R
WASHINGTON       N/A     63  62  97 CALM      30.00R
GREENVILLE     CLOUDY    63  63 100 CALM      30.02R
NEW BERN       LGT RAIN  65  63  93 CALM      29.99S
WILMINGTON     LGT RAIN  66  65  96 CALM      29.98R
$$

VAZ048-181200-
ELSEWHERE

CITY           SKY/WX    TMP DP  RH WIND       PRES   REMARKS
HARRISBURG PA  PTCLDY    49  46  90 CALM      30.02R
BALTIMORE      MOCLDY    58  50  75 NW6       30.01R
ANNAPOLIS      CLEAR     56  53  90 CALM      30.01R
ANDREWS AFB    CLEAR     55  53  93 CALM      30.02R
PHILADELPHIA   PTCLDY    57  52  83 NW5       30.01R
HENDERSON NC   CLOUDY    58  56  94 SW6       30.02R FOG
GREENSBORO     CLOUDY    61  61 100 CALM      30.01R FOG
ROCKY MOUNT    CLOUDY    62  61  96 CALM      30.01R FOG
$$

VAZ100-181200-
MARINE

STATION/POSITION TIME  TEMP    WIND        PRES    WAVE   SWELL
                       AIR SEA DIR/SP/G            HT/PER HT/PER
                 (UTC) (F)     (DEG/KT/KT) (MB)    (FT/S) (FT/S)
CAPE MAY NJ      1000   54 53   CALM  /  1 1014.3R
LEWES DE         1000   58 49  270/  2/  3 1014.4R
15NM E FENWICK I 1050   50 48              1014.8R   3/ 8
OCEAN-CITY-INLET 1000   55 52  270/  1/  2 1014.2R
WACHAPREAGUE VA  1000   58 62   CALM  /  2 1014.6R
THOMAS POINT MD  1100   60 53  330/  5/  5 1016.9R
GOOSES REEF MD   1100   55 54  300/  4/  4   N/A     1/ 2
COVE POINT MD    1000   58     340/  9/ 10 1015.0R
SOLOMONS ISLAND  1000      55                N/A
BISHOPS HEAD MD  1000   59 62  360/  2/  4 1014.6R
PINEY POINT MD   1012           10/  6/  6   N/A
CAMBRIDGE MD     1000   57 57   CALM  /  1 1014.9R
LEWISETTA VA     1000   62 58              1015.0R
RAPPAHANNOCK LGT 1000          270/  5/  5 1015.3R
STINGRAY PT      1100   59 57   10/  4/  4 1016.8R   0
YORK RVR RNG VA  1000   63     270/  4/  4 1014.2R
YORKTOWN VA      1000   62 58  210/  1/  2 1014.5R
DOMINION TERM VA 1000   62     260/  2/  3 1014.7R
KIPTOPEKE VA     1000      60   CALM  /  1   N/A
CHES BAY BRIDGE  1000   62 54  220/  5/  7 1014.3R
CAPE HENRY VA    1000   63     220/  7/  8 1013.4R
CHESAPEAKE LGHT  1000   63     230/ 13/ 13 1015.1R
WILLOUBY STN VA  1000   63     350/  1/  1 1015.4R
S CRANEY ISL VA  1000          210/  2/  2 1014.7R
CAPE HENRY BUOY  1028      55                N/A     3/ 8
1ST LANDING BUOY 1100   57     340/  4/  6 1015.0R   2/ 5
OFFSHORE WE BUOY 1011      48                N/A     4/ 8   3/ 8
64NM E OF VA BCH 1050   58 54  230/  4/  6 1014.8R   4/ 8   3/ 8
DUCK PIER NC     1000   65 52  240/  5/  5 1013.8R
44056 DUCK FRF   1011      54                N/A     3/ 8   2/11
OREGON INLET NC  1000   63 61  290/  3/  3 1014.6F
HATTERAS NC      1000   67 66   20/  1/  2 1014.2S
DIAMOND SHLS NC  1050   70 75  360/  6/  8 1015.2R   5/ 8   5/ 8
CAPE LOOKOUT NC  1100   67      30/  3/  4 1015.2R
$$



USA.gov is the U.S. government's official web portal to all federal, state and local government web resources and services.